Wind_Speed
42 42 43 44 46 47 49 50 52 53 55 57 58 60 62 64 66 68 70 72 74 76 78 80 81 83 84 85 85 85 85 84 85 80 77 75 75 74 72 71 69 68 67
43 44 45 47 48 50 51 53 54 56 57 60 61 63 65 67 69 71 73 75 77 79 81 82 83 84 84 83 82 81 79 78 77 74 70 68 67 67 65 64 62 61 61
45 47 48 49 51 52 53 55 56 58 60 62 64 66 68 70 72 75 77 78 80 82 83 84 83 83 82 79 77 75 72 71 69 68 64 61 59 58 57 56 56 56 55
48 49 50 51 53 54 55 57 59 61 63 64 67 69 71 73 75 77 79 81 82 83 83 83 81 79 77 74 71 68 66 64 62 61 58 54 52 52 52 51 50 50 50
50 51 52 53 55 56 58 60 62 64 65 67 69 71 74 76 78 80 82 83 83 82 81 79 76 73 70 67 64 61 59 58 56 55 52 50 48 48 48 48 47 47 47
51 53 54 55 57 58 60 62 64 66 68 69 72 74 76 78 80 82 84 84 83 80 77 73 69 65 62 60 57 56 54 54 52 50 49 47 46 45 45 46 46 45 44
53 54 56 57 59 61 63 64 66 68 70 72 74 76 78 80 82 83 83 82 79 75 71 67 62 59 57 55 53 51 51 50 49 48 47 46 45 44 45 44 44 44 43
54 56 58 59 61 63 65 66 68 70 72 74 77 79 80 82 82 82 80 77 72 68 64 61 58 55 53 52 49 48 47 46 46 47 46 45 45 44 44 43 43 42 40
56 58 59 61 63 65 66 68 70 72 75 77 79 81 82 81 80 78 75 71 66 62 58 56 55 52 50 49 47 46 45 44 45 45 45 44 43 43 43 42 41 41 38
57 59 61 63 65 66 68 70 73 75 78 80 81 82 81 79 76 73 69 66 61 58 55 52 51 49 47 46 45 45 44 43 43 42 42 42 42 41 41 41 41 40 39
59 60 62 64 66 68 70 73 76 78 80 82 82 80 78 75 71 67 64 60 57 54 51 49 47 45 44 43 43 43 43 42 41 41 40 40 40 39 39 40 40 40 38
60 62 64 66 68 70 73 76 79 81 82 82 80 77 73 69 65 61 58 55 53 51 48 46 44 43 42 41 41 41 42 41 41 40 39 38 38 37 37 38 38 38 37
61 63 65 67 70 73 76 78 81 82 82 80 77 73 67 63 59 56 53 51 50 49 47 45 43 41 41 40 40 41 41 40 39 38 37 36 36 36 36 36 36 36 36
63 65 67 70 72 75 78 80 82 81 80 76 72 68 63 58 55 52 50 48 46 45 44 41 40 39 39 39 39 39 39 37 36 36 35 35 34 34 34 34 35 35 35
65 67 70 72 75 77 79 81 81 79 76 72 68 64 60 55 52 50 48 46 44 42 41 39 37 37 37 37 37 36 34 33 34 34 33 33 32 32 32 33 33 34 34
68 70 72 75 77 80 81 80 77 74 70 67 63 60 56 53 50 48 46 44 42 41 39 38 37 36 36 35 34 32 32 32 31 31 31 31 31 31 31 31 31 31 31
70 73 75 77 80 81 81 79 74 68 65 61 58 56 53 50 48 46 44 41 40 40 38 37 36 35 34 33 32 31 30 30 29 29 30 30 30 30 30 30 29 28 28
73 75 78 79 80 80 78 75 71 67 61 55 54 52 50 47 45 44 42 40 38 38 37 36 35 34 33 32 32 31 29 29 29 29 29 30 29 29 29 29 28 27 27
76 78 79 80 79 78 75 71 67 63 59 54 50 48 46 44 42 41 40 38 37 36 35 34 34 33 32 32 31 30 29 29 29 30 30 30 30 29 29 28 28 28 27
77 79 79 79 77 75 71 67 63 60 55 52 48 45 43 41 38 37 37 36 36 35 33 33 33 32 32 31 30 29 29 29 29 30 30 30 30 30 29 29 29 28 28
79 78 78 77 74 71 67 63 60 56 52 48 45 42 41 39 36 35 34 34 34 33 32 32 32 32 32 31 30 29 29 29 30 30 30 30 30 30 30 30 29 29 29
78 78 76 74 71 67 64 60 56 52 49 46 42 39 38 36 35 33 33 32 32 32 32 32 31 31 31 30 29 29 29 30 30 31 31 31 31 31 30 30 30 30 30
77 76 74 71 67 63 59 55 51 48 46 42 39 37 35 34 33 32 32 32 31 31 32 31 30 30 31 30 29 29 30 31 31 32 32 32 32 31 31 31 31 31 31
75 73 70 66 62 57 53 50 47 44 42 39 37 35 33 32 32 31 32 31 30 31 31 30 30 30 30 29 29 30 31 31 32 32 32 32 32 31 31 31 31 32 32
72 69 65 61 56 52 49 46 44 41 39 37 35 33 32 31 31 31 31 30 29 30 30 30 29 30 29 29 30 30 31 32 32 33 33 33 32 32 32 32 32 32 32
68 64 60 56 52 49 46 43 41 39 36 35 33 32 31 31 30 30 30 29 29 29 29 29 30 30 30 30 31 31 32 33 33 34 34 34 33 33 33 33 33 32 32
Wind_Direction
295 294 294 294 294 294 295 295 296 297 297 298 299 299 299 300 300 300 300 300 300 300 300 300 299 299 298 297 296 295 294 292 291 290 289 287 285 284 282 281 279 277 276
295 295 295 295 295 296 296 297 298 298 299 300 300 301 301 302 302 302 302 302 302 302 302 301 301 300 299 298 296 295 294 292 291 291 289 287 285 284 282 280 279 277 276
296 296 296 296 297 297 298 299 299 300 301 301 302 303 303 303 304 304 304 304 304 303 303 303 302 301 299 298 297 295 294 292 292 292 291 288 287 285 283 281 280 278 277
296 297 297 298 298 299 299 300 301 302 302 303 304 304 305 305 305 305 305 305 305 305 304 303 302 301 299 298 296 295 294 293 292 292 292 290 288 286 285 283 281 280 279
297 297 298 299 300 300 301 302 302 303 304 305 305 306 306 307 307 306 306 306 305 305 304 303 302 300 299 297 296 295 294 293 293 292 292 290 289 287 285 283 282 281 279
297 298 299 299 300 301 302 303 303 304 305 306 306 307 308 308 308 308 307 307 306 305 304 303 301 300 298 297 296 295 295 294 294 293 292 291 289 287 285 283 283 282 281
298 298 299 300 301 302 303 304 305 305 306 307 308 309 309 309 309 308 308 307 306 305 304 303 301 300 298 297 295 294 295 295 294 293 293 292 290 288 287 285 284 284 283
298 299 300 301 302 303 304 305 306 307 308 309 310 310 310 310 309 309 308 307 306 305 304 303 302 300 298 296 295 294 294 294 293 293 293 293 291 290 289 287 285 285 284
299 300 301 302 303 304 305 307 308 309 310 311 311 311 311 311 310 309 307 306 306 305 304 303 302 300 298 296 296 295 295 295 294 293 293 292 291 289 288 287 286 285 284
300 301 302 304 305 306 307 308 309 310 311 312 312 312 312 311 310 308 307 306 306 305 304 303 302 301 299 297 296 296 296 295 294 294 293 292 291 289 287 286 286 285 284
301 302 304 305 306 308 309 310 311 312 312 313 313 313 313 311 310 308 307 306 306 306 305 304 303 301 300 299 298 298 298 296 296 295 294 292 290 288 286 285 285 284 284
303 304 306 307 308 310 311 312 313 313 314 314 314 313 312 311 309 308 307 307 307 307 306 305 303 302 301 300 300 300 299 298 297 296 295 294 292 289 286 284 283 283 282
304 306 307 309 310 311 312 313 314 314 314 314 313 313 312 311 309 308 307 307 307 307 306 305 304 302 301 300 301 301 300 299 298 297 296 295 294 292 289 285 283 282 281
306 308 309 310 311 312 313 314 315 315 314 314 313 312 312 310 309 308 307 307 306 306 306 305 304 302 302 302 302 302 301 300 299 299 298 297 296 294 292 288 284 282 281
308 309 310 311 312 313 314 315 315 315 314 313 312 312 311 310 309 308 308 307 307 306 306 305 304 303 303 303 303 303 303 302 301 301 301 300 299 298 296 293 289 285 282
309 310 311 312 313 314 315 315 315 314 313 312 312 311 311 310 310 309 309 308 308 307 307 307 305 305 304 304 304 303 303 303 303 303 303 302 302 301 299 298 295 290 285
310 311 312 313 314 314 315 315 315 314 313 311 310 310 310 309 309 309 309 309 308 308 308 307 306 306 305 305 304 303 303 304 304 304 304 304 304 303 302 299 297 294 289
311 312 313 314 314 315 315 315 314 314 313 311 310 309 308 309 309 309 309 309 309 308 308 307 307 307 306 305 304 303 303 303 304 304 305 305 305 304 303 301 297 294 290
312 312 313 314 314 315 315 314 314 313 313 311 310 308 307 308 309 309 308 309 309 309 308 307 307 307 306 305 304 303 302 302 303 304 305 305 305 304 303 301 298 294 291
312 313 313 314 314 314 314 313 313 313 312 311 310 308 307 308 308 307 307 308 309 309 308 308 308 307 307 305 304 303 302 303 303 304 305 304 304 303 302 301 298 295 292
312 313 313 313 314 313 313 312 312 312 311 311 310 309 308 308 308 307 307 308 308 309 309 309 308 308 307 305 303 302 303 303 303 304 305 305 304 302 301 299 297 294 292
312 312 313 313 312 312 311 311 311 311 311 310 309 308 308 308 308 308 308 308 309 309 310 309 309 308 308 306 303 302 303 304 304 305 305 305 304 302 300 298 297 294 292
312 312 312 312 311 311 311 310 310 310 310 309 308 308 307 307 307 308 308 308 309 310 310 310 309 309 309 307 305 303 303 304 305 306 306 305 304 302 300 299 297 295 293
311 311 311 311 310 310 310 310 310 309 309 308 307 307 307 307 307 307 308 308 309 310 310 310 310 310 310 308 306 306 306 306 306 307 307 306 305 303 301 300 298 296 294
311 311 310 310 309 309 308 308 309 308 308 307 307 306 306 306 307 307 308 308 308 309 310 310 310 310 310 309 308 307 307 307 307 307 308 307 306 305 303 302 300 297 294
310 310 310 309 308 307 307 307 307 307 306 306 306 305 305 306 306 307 308 308 308 309 309 309 310 311 310 309 308 308 308 309 308 308 308 308 306 305 304 302 301 298 295
Height
5724 5721 5717 5713 5709 5705 5701 5696 5692 5687 5681 5676 5670 5664 5657 5651 5644 5636 5629 5621 5613 5605 5596 5587 5579 5569 5561 5551 5542 5533 5524 5514 5509 5515 5509 5500 5492 5487 5483 5479 5476 5474 5473
5714 5710 5706 5702 5698 5693 5688 5683 5678 5673 5667 5661 5654 5648 5641 5633 5625 5617 5610 5601 5592 5583 5574 5564 5554 5544 5535 5526 5516 5508 5500 5491 5483 5484 5486 5478 5471 5465 5461 5458 5456 5454 5453
5703 5699 5695 5690 5685 5681 5676 5670 5664 5659 5652 5645 5638 5631 5623 5615 5607 5598 5589 5580 5571 5561 5550 5540 5530 5519 5511 5501 5492 5485 5477 5470 5463 5459 5460 5456 5450 5445 5441 5439 5437 5435 5434
5692 5687 5682 5678 5673 5667 5662 5656 5650 5643 5637 5630 5622 5614 5605 5596 5587 5577 5568 5559 5549 5538 5527 5516 5506 5496 5487 5478 5471 5464 5457 5451 5445 5440 5438 5436 5432 5428 5424 5422 5420 5419 5417
5680 5675 5670 5665 5659 5654 5648 5642 5635 5628 5621 5613 5605 5596 5587 5577 5566 5556 5547 5537 5527 5516 5506 5494 5484 5474 5465 5457 5451 5445 5439 5433 5429 5424 5421 5419 5416 5412 5409 5406 5404 5403 5402
5667 5662 5657 5651 5646 5640 5633 5627 5620 5612 5604 5596 5587 5578 5568 5557 5546 5534 5523 5514 5504 5493 5483 5474 5464 5455 5447 5440 5433 5427 5422 5417 5413 5408 5405 5403 5401 5397 5394 5391 5389 5388 5388
5654 5649 5643 5638 5632 5625 5618 5611 5604 5596 5588 5579 5569 5559 5548 5537 5524 5513 5501 5491 5482 5471 5462 5453 5446 5438 5430 5424 5418 5413 5408 5403 5398 5394 5390 5388 5385 5383 5379 5377 5375 5373 5372
5641 5636 5630 5624 5617 5610 5603 5595 5587 5579 5570 5560 5550 5539 5528 5516 5503 5491 5480 5470 5461 5452 5443 5435 5428 5422 5414 5408 5403 5399 5395 5390 5385 5380 5377 5374 5371 5368 5365 5363 5360 5359 5358
5628 5622 5616 5609 5602 5595 5587 5579 5570 5561 5552 5541 5530 5519 5507 5496 5482 5470 5459 5451 5443 5435 5427 5419 5411 5406 5400 5393 5389 5385 5382 5377 5372 5368 5364 5361 5357 5354 5351 5349 5347 5345 5345
5615 5608 5601 5594 5587 5579 5570 5562 5552 5543 5533 5522 5511 5499 5486 5475 5463 5451 5440 5432 5426 5419 5412 5404 5397 5390 5385 5379 5375 5371 5367 5364 5359 5355 5352 5348 5344 5341 5339 5336 5334 5332 5331
5601 5594 5587 5579 5571 5562 5554 5545 5534 5524 5514 5503 5492 5480 5467 5454 5443 5433 5423 5414 5408 5402 5397 5390 5384 5377 5372 5367 5362 5358 5353 5349 5346 5342 5339 5336 5332 5329 5327 5324 5322 5319 5318
5587 5580 5572 5563 5555 5545 5536 5526 5515 5504 5493 5482 5470 5460 5448 5437 5426 5416 5408 5400 5393 5387 5382 5376 5370 5365 5360 5355 5350 5346 5341 5336 5333 5329 5326 5323 5320 5317 5315 5312 5310 5308 5306
5572 5564 5556 5548 5539 5528 5518 5508 5497 5484 5472 5461 5450 5441 5432 5421 5411 5401 5394 5387 5380 5374 5368 5363 5358 5353 5348 5343 5339 5334 5329 5325 5321 5317 5314 5311 5308 5305 5302 5300 5298 5296 5295
5557 5549 5540 5532 5522 5512 5501 5489 5477 5464 5452 5441 5430 5422 5414 5406 5396 5388 5381 5375 5368 5362 5357 5352 5346 5341 5336 5332 5327 5322 5318 5313 5309 5306 5303 5300 5297 5294 5291 5288 5286 5284 5283
5541 5533 5524 5515 5505 5495 5484 5471 5458 5446 5431 5421 5412 5403 5396 5391 5383 5375 5367 5362 5356 5350 5345 5341 5336 5331 5326 5321 5317 5312 5307 5303 5300 5296 5292 5289 5286 5283 5280 5277 5274 5273 5271
5525 5517 5507 5497 5487 5476 5465 5455 5442 5428 5417 5405 5395 5387 5380 5374 5368 5361 5355 5349 5343 5338 5333 5329 5325 5320 5316 5311 5307 5302 5298 5294 5290 5287 5283 5280 5276 5273 5270 5267 5264 5262 5260
5508 5499 5489 5479 5468 5456 5445 5434 5426 5417 5404 5392 5382 5374 5366 5360 5354 5348 5343 5338 5332 5327 5322 5318 5314 5310 5305 5301 5297 5293 5289 5285 5281 5278 5274 5271 5267 5264 5260 5257 5254 5252 5250
5491 5481 5471 5460 5449 5437 5426 5415 5405 5396 5390 5382 5372 5362 5354 5348 5342 5336 5331 5326 5322 5317 5312 5308 5304 5299 5295 5291 5287 5283 5280 5276 5272 5269 5265 5262 5258 5255 5251 5248 5245 5243 5241
5474 5463 5452 5442 5430 5419 5408 5398 5388 5379 5371 5365 5358 5351 5343 5337 5332 5326 5320 5315 5311 5307 5302 5298 5294 5290 5286 5282 5278 5274 5271 5267 5264 5260 5256 5253 5249 5245 5242 5239 5236 5234 5231
5457 5445 5433 5423 5413 5402 5391 5382 5373 5364 5357 5350 5343 5337 5332 5327 5322 5316 5311 5306 5301 5297 5293 5289 5284 5280 5276 5272 5268 5265 5262 5258 5255 5251 5247 5243 5240 5236 5233 5230 5227 5224 5222
5438 5428 5416 5405 5395 5384 5375 5366 5358 5350 5343 5337 5331 5325 5319 5314 5310 5306 5301 5297 5292 5288 5284 5279 5275 5271 5267 5263 5259 5256 5253 5249 5245 5242 5238 5234 5230 5227 5223 5220 5217 5214 5212
5419 5409 5398 5388 5378 5368 5359 5351 5343 5336 5330 5324 5319 5314 5309 5304 5299 5296 5292 5288 5283 5279 5275 5270 5266 5262 5258 5254 5250 5247 5244 5240 5236 5232 5229 5225 5221 5217 5214 5210 5207 5204 5202
5401 5390 5381 5371 5361 5353 5345 5337 5330 5324 5318 5312 5307 5303 5299 5294 5290 5286 5282 5278 5274 5270 5266 5261 5257 5253 5249 5245 5241 5238 5234 5231 5227 5223 5219 5215 5211 5207 5203 5200 5197 5194 5191
5382 5372 5363 5354 5346 5338 5331 5324 5318 5312 5306 5301 5297 5293 5289 5285 5281 5277 5273 5269 5265 5261 5257 5253 5249 5245 5240 5236 5232 5229 5225 5221 5217 5213 5209 5205 5201 5197 5193 5190 5186 5183 5180
5365 5355 5346 5338 5331 5324 5318 5312 5306 5301 5296 5291 5287 5283 5279 5276 5272 5268 5264 5260 5257 5253 5248 5244 5240 5236 5232 5228 5224 5220 5216 5211 5207 5203 5199 5195 5191 5186 5183 5179 5175 5172 5169
5348 5339 5330 5323 5317 5310 5305 5300 5295 5290 5286 5281 5277 5274 5270 5267 5263 5259 5256 5252 5248 5244 5240 5236 5232 5227 5223 5219 5215 5211 5206 5202 5197 5193 5188 5184 5180 5176 5172 5168 5164 5161 5157